L'Héraultaise - 05/04/2015

93 km


Pl Do. Nom - Surname Prénom - Name S-Cat /cat Club - Team TEMPS - Time Km/h /sx
1 1618 CANTONI VINCENT MB 1 team montagnac ac 02:40:17 34,81 1
2 1513 ROVERSO GILLES MA 1 vélo club védasien 02:43:30 34,13 2
3 1397 DAGORNE FLORIAN MB 2 team montagnac ac 02:44:05 34,00 3
4 1719 ARTIERS CEDRIC MC 1 VELO SPORT SAINT AFFRIQUE 02:44:07 34,00 4
5 1418 CHANGEAT BRUNO MB 3 cr saint chamond 02:44:07 34,00 5
6 1590 LAURENT CHRISTOPHE MB 4 pic saint loup run n' bike 02:44:07 34,00 6
7 1599 TAISSE FREDERIC MB 5 team montagnac ac 02:44:08 34,00 7
8 1344 PEREIRA GUILHEM MB 6 massalia cyclisme 02:44:08 33,99 8
9 1604 BOURDON CYRIL MA 2 roc évasion 02:44:10 33,99 9
10 1741 TRAUCHESSEC JEAN-BAPTISTE MB 7 uc saint-chély d'apcher 02:45:35 33,70 10
11 1582 LEFEBVRE RICHARD MC 2 team montagnac ac 02:45:51 33,64 11
12 1403 LAGASSE GUILLAUME MB 8 velo club cambonnais 02:45:58 33,62 12
13 1239 CROS JEREMY MB 9 usc vaison la romaine 02:45:59 33,62 13
14 1534 GRAZIANO BERNARD MD 1 vtt du garlaban 02:46:02 33,60 14
15 1484 BRUN CHRISTOPHE MC 3 vc melgorien 02:46:04 33,60 15
16 1583 HERNANDEZ GILLES MB 10 port de bouc vc 02:46:20 33,54 16
17 1308 ROULLIER FRANCKY MB 11 asph 02:46:52 33,44 17
18 1796 ROUSTAIN ALEXANDRE MB 12 ca castelsarazin 02:46:55 33,43 18
19 1378 GUIHUIT MARIAN MD 2 vc salindres 02:46:57 33,42 19
20 1247 SEVERAC FREDERIC MC 4 pic st loup run n'bike 02:47:06 33,39 20
21 1287 GUILLAUME SAMSON MB 13 asph montpellier 02:47:19 33,35 21
22 1412 LAVAILL XAVIER MB 14 team montagnac ac 02:47:19 33,35 22
23 1376 HUERTAS FREDERIC MB 15 team gso 02:49:01 33,01 23
24 1503 BOTTEAU OLIVIER MC 5 cc le boulou 02:49:04 33,00 24
25 1371 ZARAGOZA THOMAS MB 16 beziers triathlon 02:49:20 32,95 25
26 1511 RUIZ VALENTIN MA 3 avc nimes 02:49:40 32,89 26
27 1776 PIVAIN CLAUDE MC 6   02:49:41 32,88 27
28 1623 BRUN ERIC MC 7 pic st loup run n'bike 02:49:41 32,88 28
29 1785 GONZALES GUILLAUME MB 17 velo club melgorien mauguio carnon 02:49:42 32,88 29
30 1635 REYNES STEPHANE MC 8 vélo sport saint affricain 02:49:42 32,88 30
31 1417 RULLIERE DAVID MB 18 ecole de velo du puy 02:49:43 32,88 31
32 1398 ARNOLD GILLES MD 3 sud velo 02:49:44 32,87 32
33 1332 VERNET FREDERIC MB 19 team baudille cycliste 34 02:49:44 32,87 33
34 1428 DUMAS SEBASTIEN MB 20 velo club salindrois saint privat 02:49:44 32,87 34
35 1277 BONZOM CHRISTOPHE MC 9 vccb 02:49:47 32,86 35
36 1566 OLLIVIER THIERRY MC 10 vtt garlaban 02:49:48 32,86 36
37 1619 TURC BLAISE MA 4 sud vélo ne jetez plus 02:49:53 32,84 37
38 1634 ROUSSE DENIS MC 11 vtt garlaban 02:50:07 32,80 38
39 1543 RULIER SEBASTIEN MB 21 velo sprint narbonnais 02:50:08 32,80 39
40 1489 COUDERC SEBASTIEN MC 12 mende run & bike 02:51:22 32,56 40
41 1609 BROS MICKAËL MA 5 vélo club mauguio 02:55:11 31,85 41
42 1401 GRANIÉ SÉBASTIEN MC 13 vélo d'olt 02:55:13 31,84 42
43 1438 GUMY ERIC MC 14 team baudille 34 02:55:13 31,84 43
44 1355 COSTA CYRI MC 15 vc salindres 02:55:14 31,84 44
45 1391 ROUSSEL SEBASTIEN MC 16 cyclo club mazérien 02:55:14 31,84 45
46 1710 CIRCHIRILLO SERGE MD 4 pic st loup run n bike 02:55:14 31,84 46
47 1480 TEISSEDRE HERVÉ MC 17 saint chely cyclisme 02:55:15 31,84 47
48 1550 CHASSERAY CLAUDE MC 18 les mousquetaires pradeens 02:55:15 31,84 48
49 1514 ROVERSO OLIVIER MA 6 vélo club védasien 02:55:16 31,84 49
50 1684 MARROU RICHARD ME 1 vc apt 02:55:16 31,84 50
51 1607 MORAND YVES MC 19 istres sport cyclisme 02:55:17 31,83 51
52 1504 RUIZ GAUTHIER MA 7 velo sport castelnaudary 02:55:17 31,83 52
53 1783 MOREL FRANCK MD 5   02:55:18 31,83 53
54 1525 GALLEN HERVÉ MD 6 istres sport cyclisme 02:55:19 31,83 54
55 1486 AYMARD RAPHAEL MC 20 vcnovais 02:55:20 31,82 55
56 1360 GAILLARD FRANCK MD 7 vélo club salindres saint privat 02:55:20 31,82 56
57 1367 DEDIEU FRANCK MD 8 union cyclime 31 02:55:32 31,79 57
58 1431 CATANIA VINCENT MD 9   02:55:38 31,77 58
59 1323 HERNANDEZ FRANCK MC 21 vc salindres 02:56:01 31,70 59
60 1577 LEDOGAR XAVIER MC 22 vsnarbonne 02:56:11 31,67 60
61 1381 LE BEUX FRANCOIS MB 22 ccs34 02:57:43 31,40 61
62 1627 COACOLO JULIEN MC 23 gscn 02:58:44 31,22 62
63 1328 MARTINEZ JEAN-FRANÇOIS MC 24 amicale cycliste lattoise 03:00:34 30,90 63
64 1685 GALTRAND JULIEN MB 23 allbikes 7 / guidon sportif setois 03:00:39 30,89 64
65 1735 CALMETTE JEAN MARIE MD 10 team montagnac ac 03:00:40 30,88 65
66 1762 CORREAS LIBERTO ME 2 team montagnac ac 03:00:41 30,88 66
67 1614 BROS THIERRY MD 11 velo club mauguio 03:00:41 30,88 67
68 1253 GADENNE ALAIN MF 1 cc le boulou 03:00:41 30,88 68
69 1258 TISON STÉPHANE MC 25 asph 03:00:41 30,88 69
70 1233 BOUSQUET MARC ME 3 team montagnac ac 03:00:42 30,88 70
71 1327 LINSALATA CEDRIC MB 24 st gely du fesc 03:00:42 30,88 71
72 1408 ENGSTER JEAN MA 8 lunel velo passion 03:00:43 30,87 72
73 1588 KAUFMANN JASON MA 9 vc mauguio 03:00:44 30,87 73
74 1512 VANDERBEKE JOHANN MB 25 team madewis 03:00:44 30,87 74
75 1790 BENAREAU IGNAKI MC 26 cc le boulou 03:00:44 30,87 75
76 1267 CHÉRIF BAHIA ERIC MC 27 velo sport castrais 03:00:44 30,87 76
77 1297 ALOY CHRISTIAN MF 2 vélo club agathois 03:00:44 30,87 77
78 1459 CAZILLAC PATRICE MC 28 guidon sportif courant narbonne 03:00:45 30,87 78
79 1234 AUTRIC FRÉDÉRIC MC 29   03:00:45 30,87 79
80 1601 MIQUEL FRANCOIS MB 26 les tamalous 03:00:46 30,87 80
81 1558 BRUN CLÉMENT MC 30   03:00:47 30,86 81
82 1553 BENJUMEA JOSE MD 12 cc le boulou 03:01:09 30,80 82
83 1452 AMOROS FRANCK MA 10 guidon sportif setois 03:02:46 30,53 83
84 1407 LEVASSEUR JEROME MC 31 guidon sportif 03:02:49 30,52 84
85 1791 CHERCHI JEAN FRANÇOIS MC 32 ucb 03:03:56 30,34 85
86 1548 LEGRAND FRANCK MH 1 team cres cyclisme 03:03:57 30,33 86
87 1354 CUBEDO PIERRE ME 4 team montagnac ac 03:03:57 30,33 87
88 1606 CHASSAGNE PHILIPPE ME 5 velo club des alpilles 03:03:58 30,33 88
89 1740 FRAYSSE CHRISTIAN MC 33 team cres cyclisme 03:04:00 30,33 89
90 1621 SUCH ADRIEN MB 27   03:04:00 30,33 90
91 1386 THUERY PAUL MA 11   03:04:01 30,32 91
92 1799 JEANJEAN GILLES MD 13 team montagnac ac 03:04:01 30,32 92
93 1625 CHABAL SÉBASTIEN MB 28 asph 03:04:01 30,32 93
94 1454 PONS LAURENT MC 34 mauguio 03:04:02 30,32 94
95 1756 FONTERS ERIC MC 35   03:04:02 30,32 95
96 1427 RAYNIER GERARD MD 14 guidon sportif coursan narbonne 03:04:03 30,32 96
97 1426 LE GALLIC FLORENCE FW1 1 guidon sportif coursan narbonne 03:04:03 30,32 1
98 1390 NURIT FLORIAN MA 12 velo d'olt 03:04:22 30,27 97
99 1787 LECLERC CHRISTOPHE MC 36 st peray 03:04:23 30,26 98
100 1440 GRAS ERIC MD 15 fleche floracoise 03:05:00 30,16 99
101 1521 FRAYSSE VINCENT MC 37 entente cycliste luc primaube 03:05:17 30,11 100
102 1320 OLIVIER SÉBASTIEN MC 38 asph 03:05:35 30,07 101
103 1546 BLANC SEBASTIEN MB 29 velo passion morieres 03:05:46 30,04 102
104 1311 PONS GAEL MA 13 asph 03:05:52 30,02 103
105 1463 HONORAT JEA-NOËL MD 16 cyclo club chateaurenardais 03:05:53 30,02 104
106 1482 FONTES THIERRY MC 39   03:05:56 30,01 105
107 1348 CROS ROMAIN MA 14   03:06:03 29,99 106
108 1739 ENGELHARDT CEDRIC MC 40 tbc34 03:06:05 29,98 107
109 1651 MENETRIEUX BRUNO MD 17 bac 03:06:10 29,97 108
110 1595 MUNOZ PATRICK MD 18   03:06:11 29,97 109
111 1264 LAGOA MICHEL MB 30 fleche floracoise 03:06:34 29,91 110
112 1319 OLIVIER FABIENNE FW2 1 asph 03:06:35 29,91 2
113 1660 CAUMETTE CHRISTOPHE MC 41   03:06:35 29,91 111
114 1579 ZANDE REMY MA 15   03:06:37 29,90 112
115 1230 DEBARD STEPHANE MC 42   03:07:03 29,83 113
116 1755 DOVERGNE DAVID MC 43 asph 03:07:20 29,79 114
117 1383 VAUDÉ HENRY MD 19 team montagnac ac. 03:07:21 29,78 115
118 1300 GONZALEZ GEORGES MD 20 cyclosportcatalan 03:07:43 29,72 116
119 1276 BENOIT PHILIPPE MC 44 team montagnac ac 03:08:25 29,61 117
120 1257 CAUMARTIN REGIS MC 45 stade toulousain 03:08:33 29,59 118
121 1659 PORTA STEPHANE MD 21   03:08:33 29,59 119
122 1563 MAZET GAUTHIER MC 46   03:08:34 29,59 120
123 1443 CAUSSEL LILIAN MC 47 fleche du midi 03:08:34 29,59 121
124 1500 DUCHAYNE QUENTIN MA 16 us colomiers cyclisme 03:08:45 29,56 122
125 1800 GEMARIN MICHAEL MC 48 vcpsf 03:09:09 29,50 123
126 1365 MAURY ALAIN MD 22   03:09:09 29,50 124
127 1227 GHALI FABRICE MC 49 pezenas 03:09:10 29,50 125
128 1527 DOLLADILLE CHRISTOPHE MC 50 velo sprint grand ales 03:09:10 29,50 126
129 1731 NUBOIS JOEL ME 6 guidon sportif setois 03:09:11 29,49 127
130 1474 FAVIER SERGE MC 51   03:09:11 29,49 128
131 1586 GUTIERREZ SIMON MC 52 cyclo cournon d'auvergne 03:09:11 29,49 129
132 1392 MUNOZ PAUL MD 23 cc le boulou 03:09:12 29,49 130
133 1246 VENUTO GERARD MD 24   03:09:12 29,49 131
134 1545 TEZIER FREDERIC MC 53 team montagnac ac 03:09:13 29,49 132
135 1377 HENRY-BARRIOL MAXIME MA 17 cyclo club châteaurenardais 03:09:13 29,49 133
136 1575 REVERSAT LILIAN MC 54 vélo d olt 03:09:14 29,49 134
137 1794 PALLUD THIBAULT MD 25   03:09:14 29,49 135
138 1615 MABILON JACQUES MD 26 ac montseveroux 03:09:14 29,49 136
139 1364 FABRE ERWAN MA 18 avc nimois 03:09:14 29,49 137
140 1488 MORTELETTE BERNARD MD 27 team baudille34 03:09:31 29,44 138
141 1551 ALIAGA JEAN-MARIE MD 28 asph 03:09:42 29,41 139
142 1237 ROBBIANI LOIC MC 55 triathlon villefranche saône vallée 03:11:10 29,19 140
143 1479 BERTHUIT DAMIEN MB 31 saint chely cyclisme 03:11:24 29,15 141
144 1714 ROUVIERE JEAN-FRANÇOIS MC 56 toac 03:11:33 29,13 142
145 1321 PEREZ JOSE MD 29   03:11:34 29,13 143
146 1270 CALVAYRAC DIDIER MC 57 velo club vedasien 03:11:58 29,07 144
147 1570 SERRANO JEAN-MICHEL MC 58 tbcst felix de lodez 03:12:11 29,03 145
148 1585 BARRANS ALAIN MD 30   03:12:29 28,99 146
149 1382 LAGUERRE PATRICK MB 32 c.c.rivesaltes 03:12:30 28,99 147
150 1477 GIBERT GÉRARD MD 31 saint chely cyclisme 03:12:32 28,98 148
151 1444 PARRA JEAN CHARLES ME 7 team montagnac ac 03:12:33 28,98 149
152 1389 BUTAIJE GÉRY MD 32 speedy club namur 03:12:34 28,98 150
153 1673 RYCKEBUSCH NICOLAS MB 33 sprinter de nimes 03:12:35 28,97 151
154 1333 SCIAUVAU JEAN BERNARD MC 59 issoire tri aventure 03:12:36 28,97 152
155 1498 SERRE PATRICK ME 8 rco ruoms 03:12:38 28,96 153
156 1399 FABRY FREDERIC MC 60 avcf 03:12:39 28,96 154
157 1476 MOURGUES YOHAN MB 34 vsga 03:12:40 28,96 155
158 1629 MARECHAL ERIC MD 33 cc rivesaltes 03:12:40 28,96 156
159 1730 CLAUDE JEAN-MICHEL MD 34 vsga 03:12:41 28,96 157
160 1610 DELMAS HUBERT ME 9 saubens cyclo 31 03:12:42 28,95 158
161 1250 VENTURI CHRISTIAN ME 10   03:12:43 28,95 159
162 1578 DAVID GEOFFRAY MC 61 velo d'olt 03:12:45 28,95 160
163 1515 MARTY XAVIER MC 62   03:12:50 28,94 161
164 1559 BERNARD THOMAS MA 19 targuet bike aventure 03:14:01 28,76 162
165 1462 FLORES JEAN MARC MD 35   03:14:02 28,76 163
166 1789 COSTECALDE BENJAMIN MB 35   03:14:17 28,72 164
167 1757 LEDUC VINCENT MC 63   03:14:32 28,68 165
168 1402 GARCIA LAURENT MB 36   03:14:56 28,62 166
169 1442 BEZOL GUY ME 11   03:14:59 28,62 167
170 1214 GISCLARD MARCEL MD 36   03:15:00 28,62 168
171 1564 WIEZLAK MICKAEL MB 37   03:15:00 28,62 169
172 426 BOUTHEON DOMINIQUE MC 64 cyclosport catalan 03:15:01 28,61 170
173 1605 BOURDON CHRISTIAN MC 65 roc évasion 03:15:01 28,61 171
174 1353 MASON PAUL MD 37   03:15:02 28,61 172
175 1315 ESTOUDRE JEREMY MA 20   03:15:03 28,61 173
176 1422 DUFAU ALAIN MD 38 union cycliste 31 03:15:04 28,60 174
177 1526 GALLEN NATHALIE FW3 1 istres sport cyclisme 03:15:20 28,57 3
178 1335 FANELLY XAVIER MB 38 vtt garlaban 03:15:20 28,56 175
179 1771 PUYDEBOIS MATHIAS MC 66   03:15:36 28,53 176
180 1555 PELLENC OLIVIER MC 67   03:15:37 28,53 177
181 1598 DESMIER YVES MD 39   03:15:37 28,52 178
182 1547 BALTHAZARD SYLVAIN MD 40 paulhan 03:16:13 28,44 179
183 1572 TISSOT ANTHONY MA 21 vo2 triathlon 03:16:14 28,43 180
184 1505 DANCAUSSE BRUNO MD 41 ariegeoise cyclo club 03:16:14 28,43 181
185 1285 DUPONT JOHAN MB 39 agacyclos abeilhan 03:16:19 28,42 182
186 1334 BAUBRIER PIERRE MA 22 mauguio carnon triathlon 03:16:23 28,41 183
187 1749 CORIDOU CYPRIEN MB 40   03:16:53 28,34 184
188 1366 LAGASSE LIONEL MB 41 vélo club de cambon 03:17:35 28,24 185
189 1554 DOVERGNE BARNABÉ MA 23 tbc34 03:17:35 28,24 186
190 1429 GENTEUR THIERRY MD 42 vtt club viessmann 03:17:37 28,24 187
191 1522 COQUET DIMITRI MA 24 vcll pezenas 03:17:37 28,23 188
192 1342 SCHEMBRI JÉRÔME MA 25   03:17:39 28,23 189
193 1373 LETHUILLIER JOSSELIN MB 42 vo2 03:17:40 28,23 190
194 1774 GUYOT PATRICK MD 43   03:17:40 28,23 191
195 1387 LABAT BASTIEN MA 26   03:17:46 28,21 192
196 1600 CALLEJO ALEJANDRO MC 68 cyclo club gangeois 03:18:33 28,10 193
197 1687 DOSSARD 1687 MB 43 guidon sportif 03:18:38 28,09 194
198 1471 MAT JACQUES MF 3 asc macot la plagne 03:18:39 28,09 195
199 1518 BARBA ROBERT MF 4 aubignan cyclo cabanette 03:18:40 28,09 196
200 1768 BRAVOS DANIEL MD 44   03:18:40 28,09 197
201 1314 REQUENA DANIEL MF 5 team montagnac ac 03:18:41 28,08 198
202 1535 CHRISTOPHE LEHMANN MC 69 randonneurs lézignanais 03:18:45 28,07 199
203 1649 LAVERGNE NICOLAS MB 44   03:18:47 28,07 200
204 1268 COMBECAVE JACQUES MD 45 cyclosport catalan 03:18:47 28,07 201
205 1616 PAPALIA ERIC MC 70   03:18:48 28,07 202
206 1222 AMEDURI JULIEN MA 27   03:18:48 28,07 203
207 1380 CROLLARD GEORGES MD 46   03:18:48 28,07 204
208 1786 DIAS ERIC MD 47 ac montseveroux 03:18:48 28,07 205
209 1769 PUYDEBOIS ALEXANDRE MA 28 couzerans cycliste 03:18:48 28,07 206
210 1481 ANTONIALI MICHEL MD 48 friol club tain tournon 03:18:49 28,07 207
211 1624 GONZALEZ ALAIN MD 49   03:18:49 28,06 208
212 1215 LATOUR PASCAL MD 50   03:20:07 27,88 209
213 1331 FELENC SEBASTIEN MC 71 vo2 03:20:10 27,88 210
214 1751 CAVAILHES WILLIAM MD 51 tag 03:20:19 27,85 211
215 1571 SERRANO LUCAS MA 29 tbcst felix de lodez 03:20:36 27,81 212
216 1492 DEJEAN FREDERIC MC 72 cprs pins justaret vilatte 03:20:43 27,80 213
217 1385 JAKUBCZYK STEVEN MA 30 vo2 montpellier 03:20:44 27,80 214
218 1286 DUPRAT CÉDRIC MB 45 vtt albret 03:21:39 27,67 215
219 1409 FALAIS ALEXANDRE MA 31   03:21:39 27,67 216
220 1295 GONCALVES STEPHANE MC 73   03:21:40 27,67 217
221 1312 BOLECHALA SYLVAIN MB 46   03:21:40 27,67 218
222 1562 LE CAM SYLVAIN MC 74 sud vélo ne jetez plus 03:21:42 27,66 219
223 1296 BALDET FRANCIS ME 12   03:21:42 27,66 220
224 1416 MARTIN CEDRIC MC 75 roue libre gignacoise 03:21:42 27,66 221
225 1565 TAIBI FRÉDÉRIC MC 76   03:21:45 27,66 222
226 1341 SOLER PHILIPPE MC 77 cso millau 03:21:57 27,63 223
227 1761 BOURRET THIERRY MD 52   03:22:16 27,59 224
228 1349 COULET ELIE MA 32   03:22:22 27,57 225
229 1451 AMOROS MARC MA 33 guidon sportif sètois 03:22:22 27,57 226
230 1536 THEILLOUT DANIEL MF 6   03:22:45 27,52 227
231 1289 BENAREAU PEDERSEN MALENE FW2 2 cc le boulou 03:22:46 27,52 4
232 1688 CHAPEL AURELIEN MB 47 velo club grabellois 03:22:47 27,52 228
233 1293 EVRARD STÉPHANE MC 78 vélo club livronnais 03:22:47 27,52 229
234 1770 HURLIN DENIS MC 79   03:22:49 27,51 230
235 1301 DRUILLE MATHIEU MA 34   03:22:49 27,51 231
236 1338 VABRE GREGORY MB 48 asph 03:22:54 27,50 232
237 1773 BARRACO ANTOINE MD 53   03:22:54 27,50 233
238 1272 PRION JEAN JACQUES MD 54   03:22:56 27,50 234
239 1298 MAIRESSE ROBERT MF 7 cc le boulou 03:24:01 27,35 235
240 1478 BERTHUIT ROLAND ME 13 saint chely cyclisme 03:24:01 27,35 236
241 1453 AMOROS MARCEL MF 8 guidon sportif setois 03:24:02 27,35 237
242 1256 BLASQUEZ THIERRY MC 80   03:24:03 27,35 238
243 1448 NGUYEN THI LIEN HUONG FW2 3 cyclo sport ciotaden 03:24:03 27,35 5
244 1302 BILLANGE ROLLAND ME 14 a o bagardois 03:24:03 27,35 239
245 1290 LE BIHAN CHRISTOPHE MC 81   03:24:05 27,34 240
246 1764 PLEIBER DAVID MC 82   03:24:56 27,23 241
247 1261 DORSO SEBASTIEN MC 83   03:25:26 27,16 242
248 1592 CAUSSEL LOUIS MF 9 fleche du midi 03:25:26 27,16 243
249 1497 GOMEZ JOËL MA 35 randonneurs saint nazairois 03:25:30 27,15 244
250 1738 VIARGUES PIERRE MD 55 entente cycliste luc primaube 03:25:30 27,15 245
251 1517 PINOT FRANCK MC 84 entente cycliste luc la primaube 03:25:30 27,15 246
252 1439 ALBINET ANDRÉ MD 56 u.c. fumel monsempron6libos 03:25:32 27,15 247
253 1544 BOMPARD CHRISTIAN MF 10 sprinter velo club nimois 03:25:33 27,15 248
254 1485 ARCHIMBAUD CHRISTOPHE MB 49 asph 03:26:52 26,97 249
255 1437 DUEYMES THIERRY MC 85   03:27:10 26,93 250
256 1754 FOUQUET GÉRARD ME 15   03:27:15 26,92 251
257 1721 SPRINGARD WILLIAM MA 36 velo club mauguio carnon 03:27:22 26,91 252
258 1379 BEAUBRUN CHRISTOPHE ME 16 vt tranzault 03:28:01 26,82 253
259 1759 ARGUEL BERNARD MF 11 planete 2 roues mende 03:28:02 26,82 254
260 1589 YVER CLAUDE ME 17 usc berg et coiron 03:28:02 26,82 255
261 1540 GAZEAU FRÉDÉRIC MC 86   03:28:03 26,82 256
262 1336 GAZEAU GILLES MC 87 avc fabrègues 03:28:03 26,82 257
263 1229 ARNAUD JEROME MC 88   03:28:03 26,82 258
264 1464 BIZARD MAX MF 12 vc miramas 03:28:04 26,82 259
265 1266 THUOT TOM MC 89   03:28:37 26,75 260
266 1797 TAURINES JACQUES ME 18 vclp 03:29:01 26,70 261
267 1502 PRADEILLES CHRISTOPHE MC 90 sud vélo 03:29:45 26,60 262
268 1767 VITOU ALAIN MD 57   03:30:41 26,48 263
269 1573 DERUY VINCENT MC 91   03:30:46 26,47 264
270 1519 VIEILLEDENT NICOLAS MA 37 saint chely cyclisme 03:30:57 26,45 265
271 1280 DEMEFFE PIERRE MD 58   03:30:58 26,45 266
272 1638 CHAPEL ALAIN ME 19 velo club grabellois 03:31:21 26,40 267
273 1475 VEZINHET JOËL ME 20   03:31:21 26,40 268
274 1243 MIGLIORINI BERNARD ME 21 serres castet 03:31:22 26,40 269
275 1667 PEREIRA EDGAR MB 50   03:31:22 26,40 270
276 1493 GIULIANI CHRISTOPHE MD 59 vélo sport castrais 03:31:23 26,40 271
277 1361 CAVALIER JEAN-GABRIEL MD 60 vélo d'olt 03:31:23 26,40 272
278 1288 ANCIA JEAN LOUIS MD 61   03:31:43 26,35 273
279 1329 MALAVAL NICOLAS MB 51 vélo d'olt 03:31:51 26,34 274
280 1345 VABRE PIERRE MC 92 asph 03:32:25 26,27 275
281 1430 TASTAVIN OFÉLIE FW1 2 vélo club salindres 03:32:44 26,23 6
282 1304 GUIRAUDOU FREDERIC MD 62 la flèche du midi 03:32:45 26,23 276
283 1466 SANCHEZ EMMANUEL MF 13 ao bagard 03:32:47 26,22 277
284 1217 CHEVE PATRICK ME 22   03:32:48 26,22 278
285 1326 FOUGA GILLES MF 14 team montagnac a.c 03:32:49 26,22 279
286 1677 LASSAUSSE HERVE MC 93 cyclo club de castries 03:32:49 26,22 280
287 1657 FERRANDO JEAN MARIE MD 63   03:33:04 26,19 281
288 1457 MAS STÉPHANE MB 52 spiridon club nature lodévois 03:33:15 26,17 282
289 1631 VACARESSE MICHEL MD 64   03:33:16 26,16 283
290 1201 CAROZZANI ALAIN MF 15 vélo club agathois 03:33:17 26,16 284
291 1487 MAS CHRISTIAN MF 16   03:33:18 26,16 285
292 1370 SOUCHE DAVID MC 94   03:33:19 26,16 286
293 1499 GUIRAUD PIERRE MD 65 fleche du midi 03:33:47 26,10 287
294 1337 BOISSEZ JÉRÔME MB 53 vtt du garlaban 03:33:51 26,09 288
295 1414 IBANEZ JEAN MARIE MC 95 vtt caveirac 03:33:52 26,09 289
296 1263 MONNET MICHEL ME 23 fleche floracoise 03:34:10 26,05 290
297 1221 EGEA SERGE MD 66   03:34:26 26,02 291
298 1262 RIVES JULIEN MB 54 fleche floracoise 03:34:36 26,00 292
299 1244 DUTHOIT OLIVIER MD 67 mauguio carnon triathlon 03:34:37 26,00 293
300 1278 ROCHE CATHERINE FW3 2 chamrousse team cyclosport 03:34:39 26,00 7
301 1758 BARNES LIONEL MC 96   03:35:06 25,94 294
302 1696 TALOUD JACQUES MD 68 vo2 triathlon 03:35:06 25,94 295
303 1325 LAGATHU CHRISTOPHE MC 97 vo2 triathlon 03:35:06 25,94 296
304 1211 SEYNAT NICOLAS MB 55 chameaux de beziers 03:35:07 25,94 297
305 1213 AMALRIC CLAUDE ME 24   03:35:07 25,94 298
306 1760 RICHARTE FRANCIS MD 69   03:35:08 25,94 299
307 1628 RUFFIE JEAN MD 70 cprs pins justaret-villate 03:35:09 25,93 300
308 1205 AMALOU AURELIEN MB 56   03:35:09 25,93 301
309 1632 LALANNE CLAUDE MF 17 vélo club grabellois 03:35:10 25,93 302
310 1433 CROUZET CHRISTIAN ME 25 cyclo club de castries 03:35:11 25,93 303
311 1212 BLASQUEZ LAURENT MC 98   03:35:11 25,93 304
312 1405 WOULFE MAURICE MD 71 pignon libre védasien 03:35:11 25,93 305
313 1404 LELUT MCHEL ME 26   03:35:12 25,93 306
314 1218 SALINIER DAVID MC 99   03:35:12 25,93 307
315 1369 FABRE MICHEL MD 72 vo² triathlon montpellier 03:35:14 25,92 308
316 1745 HERVE MARTIAL MD 73 vo² triathlon montpellier 03:35:14 25,92 309
317 1224 MAREC PATRICK ME 27   03:35:37 25,88 310
318 1456 LAPHIN DANIEL ME 28 asso cyclo club rochois 03:35:37 25,88 311
319 1273 CAMBON ROLAND MC 100 abeilhan ( les agacyclos ) 03:35:38 25,88 312
320 1795 VINH MAU THIERRY MD 74   03:35:40 25,87 313
321 1415 FULLEDA LAURENT MD 75   03:35:40 25,87 314
322 1455 BERGER PATRICE MB 57 mauguio carnon triathlon 03:35:40 25,87 315
323 1223 AMEDURI DAMIEN MA 38   03:35:43 25,87 316
324 1574 SANCHEZ FRANÇOIS MC 101   03:35:58 25,84 317
325 1637 MARTINEZ ANTOINE ME 29 velo club grabellois 03:36:12 25,81 318
326 1778 TERAUBE JACQUES MD 76 acl 03:36:15 25,80 319
327 1777 MONFROY CHARLES ME 30 acl 03:36:15 25,80 320
328 1523 BANON STÉPHANE MC 102   03:36:15 25,80 321
329 1410 VAN WELDEN OLIVIER MC 103 caveirac 03:36:15 25,80 322
330 1447 FAURE FLORIAN MD 77 combaillaux 03:36:15 25,80 323
331 1441 GRAS SANDRINE FW2 4 la fleche floracoise 03:36:15 25,80 8
332 1445 ABELLAN GEORGES ME 31 cprs pins-justaret/villate 03:36:15 25,80 324
333 1507 PLAUTIN DIDIER MC 104   03:36:16 25,80 325
334 1317 MATHIEU STÉPHANIE FW2 5 mousquetaires cyclistes pradéens 03:36:18 25,80 9
335 1650 TEMPIE MICHEL MD 78 velo club tcn 03:36:47 25,74 326
336 1232 URCUN M MB 58   03:37:01 25,71 327
337 1210 FAVRE MARYVONNE FW3 3   03:37:01 25,71 10
338 1209 FAVRE MICHEL MD 79   03:37:02 25,71 328
339 1294 VALENTI THIERRY MD 80   03:37:20 25,67 329
340 1788 VIVARES CHRISTOPHE MC 105 apc rodez 03:37:21 25,67 330
341 1702 ARMITANO-GRIVEL OLIVIER MC 106   03:37:25 25,66 331
342 1279 HOLDSTOCK JOHN MF 18 pézenas vcll 03:37:56 25,60 332
343 1763 CAZALS FRANCIS ME 32   03:37:57 25,60 333
344 1346 VALLERICH PIERRE MA 39   03:38:04 25,59 334
345 1330 ABRAMOVICI LAURENT MA 40   03:38:05 25,59 335
346 1303 ESPIN FREDERIC MD 81   03:38:06 25,58 336
347 1633 FAU DENIS ME 33 apc 03:38:25 25,55 337
348 1495 GARCIA JEAN MARIE ME 34 roue libre gignacoise 03:38:26 25,55 338
349 1596 SOISSONS PIERRE MC 107   03:38:30 25,54 339
350 1352 COMBES GUY MD 82 cyclo club rivesaltes 03:38:39 25,52 340
351 1617 GUILLAUD JEROME MC 108   03:38:54 25,49 341
352 1528 STÉVENIN LAURENT MD 83 teyran bike 34 03:38:57 25,48 342
353 72 FRANÇOIS PATRICK MF 19 patrouille eco cyclo 03:39:15 25,45 343
354 1318 CHAVANON VERONIQUE FW3 4 patrouille eco cyclo 03:39:15 25,45 11
355 1717 TOURRIERE WILLIAM MD 84   03:39:58 25,37 344
356 1538 MONTES FLORENT MD 85 velo club grabellois 03:39:58 25,37 345
357 1446 OFFERMAN ERIC MC 109   03:40:48 25,27 346
358 1260 RAMOS MANUEL MD 86 cyclosportcatalan 03:41:01 25,25 347
359 1204 RIOU RONAN MC 110   03:41:03 25,24 348
360 1753 TREBUCHON MARIE NOELLE FW3 5   03:41:03 25,24 12
361 1742 DEHAUDT GÉRARD MF 20 asc combaillaux 03:41:04 25,24 349
362 1436 NADAL MICHEL ME 35   03:41:05 25,24 350
363 1434 POURPOINT MICHEL MD 87   03:41:05 25,24 351
364 1322 BELLEVILLE WILLIAM MC 111 guidon sportif setois 03:42:10 25,12 352
365 1532 THIENARD JEAN-CLAUDE MF 21   03:42:25 25,09 353
366 1271 PRION THIERRY MD 88 agout velo sport 03:42:26 25,09 354
367 1396 BENEDETTI DAMIEN MB 59 guidon sportif setois 03:43:52 24,93 355
368 1695 QUADPEERDS MICHEL MF 22 villers saint paul oise 03:44:11 24,89 356
369 1779 RICHARD ALBERT MF 23   03:44:40 24,84 357
370 1529 SOLA PATRICK ME 36 rlg gignac 03:44:40 24,84 358
371 1432 MILAN THIERRY MD 89 caveirac vélo club 03:47:04 24,57 359
372 1750 MOLINA GÉRALD MD 90 sprinter velo club nimois 03:47:06 24,57 360
373 1531 DUPONT CHRISTOPHE MC 112   03:47:09 24,57 361
374 1793 NAZON JEROME MB 60 tag 34 03:47:15 24,55 362
375 1792 GERACI GAETAN MD 91 tag 34 03:47:19 24,55 363
376 1494 CHAUSSINAND FERNAND MF 24 ardechoise cyclo promotion 03:47:26 24,53 364
377 1587 CHAUVEL GUILLAUME MB 61   03:47:27 24,53 365
378 1469 JEANTET THIERRY MA 41   03:47:32 24,52 366
379 1470 PALANCADE MORGAN MA 42   03:47:35 24,52 367
380 1292 JUNIUS FABIEN MB 62   03:47:50 24,49 368
381 1216 KOCHIAN CHRISTOPHE MC 113   03:48:01 24,47 369
382 1406 PRUVOST OLIVIER MC 114   03:48:03 24,47 370
383 1697 MORAND JEAN-MICHEL MD 92 bandol chloro 03:48:03 24,47 371
384 1388 CAMPIGNA CHARLES MD 93 c.c.rivesaltes 03:48:12 24,45 372
385 1362 GASPARINI ROMAIN MB 63 cycloclub bédarieux 03:48:34 24,41 373
386 1275 CURT MICHEL MD 94 cyclosport catalan 03:48:34 24,41 374
387 1372 CAMPENET FRANTZ MD 95   03:48:34 24,41 375
388 1483 QUINTON PAUL ME 37 cyclo club bedarieux 03:48:36 24,41 376
389 1541 BARTEMENT CHRISTOPHE MD 96   03:48:43 24,40 377
390 1200 MUSSET BERNARD ME 38 ocp 03:48:46 24,39 378
391 1351 PARRA FRANCIS MF 25   03:49:52 24,27 379
392 1291 YVON CÉDRIC MC 115   03:49:53 24,27 380
393 1569 NOMDEDEU JEAN-LUC MF 26 abeilhan 03:49:56 24,27 381
394 1265 TOLMOS JEAN CLAUDE MF 27 teyran bike 34 03:50:53 24,17 382
395 1347 MARTY RAYMOND MF 28 eclp 03:50:54 24,17 383
396 1581 BAGARD MAX MD 97 triathlon club narbonnais 03:51:18 24,12 384
397 1357 VIDAMO PATRICK MD 98   03:52:07 24,04 385
398 1203 MICHEL BENJAMIN MC 116 tcm12 03:52:09 24,03 386
399 1612 VINEL LUDOVIC MA 43   03:52:10 24,03 387
400 1306 NOGUERA CAMILLE MA 44 mousquetaires pradeens 03:52:12 24,03 388
401 1449 SAINT-LEGER JÉRÔME MC 117   03:52:13 24,03 389
402 1305 NOGUERA JACQUES MD 99 teyran bike 34 03:52:13 24,03 390
403 1663 LAURANS BRUNO MC 118   03:52:14 24,03 391
404 1539 DELOUR ANDRE MF 29   03:52:23 24,01 392
405 1784 CHABBERT NATHALIE FW3 6 pezenas 03:52:23 24,01 13
406 1225 WEBER BRIGITTE FW3 7 cyclo sport ciotaden 03:52:24 24,01 14
407 1473 DAUMOND JEAN-CLAUDE MF 30   03:52:25 24,01 393
408 1472 DEO HERVÉ MD 100   03:52:26 24,01 394
409 1310 LUZECKYZ JEAN PIERRE ME 39   03:52:29 24,00 395
410 1368 PIQUET LAURENT MD 101   03:52:33 23,99 396
411 1219 BOISSET KÉVIN MB 64   03:52:42 23,98 397
412 1608 DE ARAUJO JEAN MC 119 asso chaudes aigues union cycliste 03:53:11 23,93 398
413 1313 CROS JEREMY MB 65 saint chinian 03:53:36 23,89 399
414 1324 BELIE JEAN LUC MF 31   03:54:26 23,80 400
415 1395 HUAT PASCAL MD 102 guidon sportif sétois 03:54:45 23,77 401
416 1542 BROQUIER JEAN ME 40 roue d'or de brignoles 03:56:02 23,64 402
417 1231 GIL STEPHANE MC 120 roue libre gignacoise 03:56:17 23,62 403
418 1461 PÉRANI DANIEL MF 32   03:56:52 23,56 404
419 1425 LAVAL ALAIN MD 103   03:56:55 23,55 405
420 1254 COSTE LAURENT MC 121   03:57:39 23,48 406
421 1251 GIBOUT ROBERT MF 33 vc belesta 03:57:42 23,47 407
422 1411 MALECOT THIERRY MD 104   03:57:42 23,47 408
423 1593 DANEL ARNAUD MB 66   03:58:01 23,44 409
424 1208 THUREAU DANIEL ME 41 team cycliste choletais 03:58:51 23,36 410
425 1207 BECAM SYLVIANE FW3 8 team cycliste choletais 03:58:54 23,36 15
426 1316 CALATAYUD JOELLE FW1 3 cprs pinsjustaret villatte 03:59:14 23,32 16
427 1766 BARATAUD PATRICK MD 105   04:00:52 23,17 411
428 1613 VALETTE OLIVIER MB 67   04:01:46 23,08 412
429 1516 PY BERNARD MF 34 montpellier agglo triathlon 04:03:15 22,94 413
430 1801 SABATIER FRANÇOIS MD 106   04:03:41 22,90 414
431 1384 GOMEZ CHRISTIAN MD 107 asch montpellier 04:03:49 22,88 415
432 1509 BOUDET GUILLAUME MC 122 team baudille cycliste 34 04:04:12 22,85 416
433 1496 LEMOINE PHILIPPE MD 108 velo vtt st mathieu de tréviers 04:05:04 22,77 417
434 1274 NIDHSAIN NORDINE MC 123   04:05:39 22,71 418
435 1269 DANIEL MOLINIE MD 109 torboyo 04:06:58 22,59 419
436 1413 JOURDAN PATRICK MD 110   04:06:59 22,59 420
437 1708 BIAGINI JEROME MB 68   04:07:59 22,50 421
438 1704 CABOT BENJAMIN MB 69 vo2 triathlon 04:08:00 22,50 422
439 1549 GERNIGON CHRISTOPHE MD 111 vélo vtt club st mathieu de tréviers 04:09:14 22,39 423
440 1242 MARCOUX CHRISTIAN ME 42 la voulte cyclosport 04:09:19 22,38 424
441 1734 BALCEREK BERNARD MD 112   04:09:19 22,38 425
442 1510 BOUDET ADRIEN MA 45 team baudille cycliste 34 04:11:32 22,18 426
443 1557 CIANTAR GEORGES MF 35   04:11:32 22,18 427
444 1220 RAUX EMMANUEL MA 46   04:11:37 22,18 428
445 1460 GELY JEAN DENIS ME 43 cyclo club sigeanais 04:12:40 22,08 429
446 1508 GAT FRÉDÉRIC MC 124   04:12:40 22,08 430
447 1560 SUCH JACQUES MC 125   04:14:06 21,96 431
448 1374 LAGARRIGUE ALAIN ME 44 neant 04:14:12 21,95 432
449 1206 BECERRA STÉPHANE MC 126 roue libre gignacoise 04:14:19 21,94 433
450 1775 BEA EMILIE FW2 6   04:14:20 21,94 17
451 1241 LOUPIAC BERTRAND MF 36   04:15:51 21,81 434
452 1491 POTELET YANNICK MC 127   04:15:52 21,81 435
453 1490 POTELET LAURENCE FW2 7   04:15:52 21,81 18
454 1782 FEDICHKIN FEDOR MB 70   04:15:57 21,80 436
455 1281 DUTHEIL EMMANUELLE FW1 4   04:15:58 21,80 19
456 1282 CARAMEL ALAIN MD 113   04:15:58 21,80 437
457 1240 DELEUZE DANIEL MF 37 uzes vélo club 04:17:51 21,64 438
458 1594 LECOMPTE PHILIPPE MF 38   04:17:51 21,64 439
459 1248 CHAVENT DANIEL ME 45 uzes velo club 04:17:52 21,64 440
460 1465 SIMONATO FRANÇOISE FW3 9 chamrousse team cyclosport 04:19:00 21,54 20
461 1468 MASERATI SIMON ME 46 chamrousse team cyclosport 04:19:00 21,54 441
462 1501 CORMIER PATRICK MD 114   04:19:15 21,52 442
463 1284 PARAPEL THIERRY MD 115 avenir fonsorbais omnisports 04:19:47 21,48 443
464 1626 CHICHEPORTICHE MICHEL MF 39   04:19:48 21,48 444
465 1772 CACERES FERNAND MD 116   04:19:49 21,48 445
466 1524 VALQUE THIERRY ME 47   04:19:50 21,47 446
467 1420 CORNIER PATRICK MD 117 abc 04:20:58 21,38 447
468 1591 EYSSETTE BERNARD MC 128 randonneurs saint nazairois 04:21:02 21,38 448
469 1561 FERRER BRUNO MC 129   04:21:21 21,35 449
470 1644 DIAZ CORINNE FW3 10 sudvélo/ne jetez plus 04:23:13 21,20 21
471 1664 DIAZ JEAN LUC MD 118 sud vélo/ne jetez plus 04:23:14 21,20 450
472 1723 CHAMBON CHRISTIAN ME 48 ardechoise cyclo promotion 04:23:42 21,16 451
473 1255 FOINANT DOMINIQUE MD 119 ccvtt badonviller 04:24:56 21,06 452
474 1622 ADEL CHRISTELLE FW2 8 rodez tri 12 04:25:07 21,05 22
475 1597 MARQUEZ TORRENS NEMESI FW1 5   04:25:08 21,05 23
476 1350 NAVARRO YANNICK MB 71 ariegeoise cyclo club 04:25:09 21,04 453
477 1798 DESCOUX JEAN PIERRE MD 120   04:26:05 20,97 454
478 1584 VIERA JEROME MD 121 guidon sportif setois 04:31:16 20,57 455
479 1359 EYCHENNE JACQUES MD 122 ariegeoise cyclo club 04:31:32 20,55 456
480 1358 BARD MICHELE FW3 11 ariegeoise cyclo club 04:31:32 20,55 24
481 1568 ESCOBAR HENRI MD 123 guidon sportif setois 04:31:54 20,52 457
482 1576 RIVIERE ARNAUD MD 124 guidonsportif sètois 04:31:54 20,52 458
483 1530 SAGE PASCAL MA 47   04:32:51 20,45 459
484 1567 SEVERAC JEAN ME 49   04:34:23 20,34 460
485 1602 RADAIS CHRISTINE FW3 12 ardechoise cyclo promotion 04:35:16 20,27 25
486 1603 MISTLER GERARD MF 40 ardechoise cyclo promotion 04:35:16 20,27 461
487 1736 AMIGUES PATRICK MD 125   04:36:47 20,16 462
488 1556 BOMPARD GUY MF 41   04:37:37 20,10 463
489 1630 DUPRE DIDIER MC 130   04:39:57 19,93 464
490 1611 COLLAS PHILIPPE MF 42   04:47:21 19,42 465
491 1307 GUILLOBEZ BERNADETTE FW3 13 sud velo ne jetez plus 04:48:32 19,34 26
492 1309 GUILLOBEZ SERGE MF 43 sud velo ne jetez plus 04:48:46 19,32 466
493 1252 BURILLE JEAN MF 44   04:49:58 19,24 467
494 1537 GHERBI KARIM MC 131   04:51:17 19,16 468
495 1283 COSTES JEAN ME 50   04:51:18 19,16 469
496 1259 HAMANDIA SALAH MC 132   04:51:18 19,15 470
497 1421 CORMIER MAXIME MA 48   04:53:18 19,02 471
498 1746 WHITE ANNE FW3 14   05:16:35 17,63 27
499 1747 KENNEDY DARREN MC 133   05:16:36 17,62 472
500 1748 WHITE JAMES ME 51   05:16:38 17,62 473
501 1343 NICOLAÏ PASCAL MC 134   05:18:37 17,51 474
502 1520 RABIAH SEBASTIEN MA 49   05:20:30 17,41 475
503 1363 BELBEZE RUBENS MD 127 us colomiers cyclisme 00:00:00 3,88 477
504 1393 CAMPENET CYRILLE MD 126 v c valreas 00:00:00 3,88 478
505 1400 GAUDILLERE DAVID MC 136 vtt loisirs chalonnais 00:00:00 3,88 479
506 1450 CAMERA THIERRY MC 135 velo passion morieres 00:00:00 3,88 480
507 1620 SARREBOUBEE RÉMI MA 50 sud vélo ne jetez plus 00:00:00 3,88 481
508 1636 RAMONDENC LOIC MA 51 saint affrique 00:00:00 3,88 482
509 1781 LAVAUZELLE FRÉDÉRIC MB 72 ecb 00:00:00 3,88 476
510 1394 PIROLA HERVÉ MD 128   01:32:48 3,64 483
511 1580 PAILLY BASTIEN MA 52 entente cycliste saint projet 02:13:58 3,55 484